Location: Arroyo de Valdeoliva
(40.1604°N, 4.9878°W)
Time: 20:57:33
(UTC+00:00)

SPOT 1/Viking Rocket - Pass Details

Date: 14 March 2026
Orbit: 773 x 788 km, 98.2° (Epoch: 11 April)

Event Time Altitude Azimuth Distance (km) Brightness Sun altitude
Rises 06:00:40 0° 30° (NNE) 3,290 7.3 -7.1°
Reaches altitude 10° 06:03:47 10° 50° (NE) 2,356 6.9 -6.5°
Maximum altitude 06:07:13 18° 92° (E) 1,875 7.0 -5.8°
Drops below altitude 10° 06:10:37 10° 133° (SE) 2,342 6.8 -5.2°
Sets 06:13:42 0° 152° (SSE) 3,263 7.2 -4.6°
